{"data":{"norad_id":52136,"intl_designator":"2022-029BA","name":"STARLINK-3720","alt_names":[],"object_type":"PAYLOAD","status":"ACTIVE","operator":null,"country":"US","launch_date":"2022-03-19","launch_site_code":"AFETR","launch_vehicle":null,"mission":null,"orbit_class":"UNKNOWN","rcs_meters":null,"size_class":null,"mass_kg":null,"dimensions":null,"purposes":["comms"],"wikipedia_slug":null,"has_3d_model":false,"image_url":null,"decayed_at":null,"tle_current":{"epoch":"2026-09-20T01:16:01.130304Z","epoch_age_seconds":94040,"freshness":"FRESH","line1":"1 52136U 22029BA  26263.05279086  .00002137  00000+0  72142-4 0  9990","line2":"2 52136  53.1606 270.7537 0001028  82.9655 277.1464 15.35406118250357","mean_motion":15.35406118,"eccentricity":0.0001028,"inclination_deg":53.1606,"raan_deg":270.7537,"arg_perigee_deg":82.9655,"mean_anomaly_deg":277.1464,"bstar":7.2142e-5,"rev_number":25035,"period_min":93.786261700958,"perigee_km":459.01154741841,"apogee_km":460.4174096824,"semimajor_km":6837.8514785504,"source":"CELESTRAK","updated_at":"2026-09-20T09:00:39.992207Z"}}}